Time,TemperatureF,DewpointF,PressureIn,WindDirection,WindDirectionDegrees,WindSpeedMPH,WindSpeedGustMPH,Humidity,HourlyPrecipIn,Conditions,Clouds,dailyrainin,SolarRadiationWatts/m^2,SoftwareType,DateUTC
2013-08-08 00:43:00,50.0,50.0,-100.00,South,183,0.0,4.0,100,0.00,,,0.00,0.000000,,2013-08-08 07:43:00,
2013-08-08 00:53:00,50.0,50.0,-100.00,South,183,0.0,4.0,100,0.00,,,0.00,0.000000,,2013-08-08 07:53:00,
2013-08-08 01:22:00,52.0,52.0,-100.00,South,181,1.0,3.0,100,0.00,,,0.00,0.000000,,2013-08-08 08:22:00,
2013-08-08 01:32:00,52.0,52.0,-100.00,South,181,1.0,3.0,100,0.00,,,0.00,0.000000,,2013-08-08 08:32:00,
2013-08-08 01:43:00,52.0,52.0,-100.00,South,181,1.0,3.0,100,0.00,,,0.00,0.000000,,2013-08-08 08:43:00,
2013-08-08 01:52:00,52.0,52.0,-100.00,South,181,1.0,3.0,100,0.00,,,0.00,0.000000,,2013-08-08 08:52:00,
2013-08-08 02:32:00,52.0,52.0,-100.00,SSE,167,0.0,2.0,100,0.00,,,0.00,0.000000,,2013-08-08 09:32:00,
2013-08-08 02:42:00,52.0,52.0,-100.00,SSE,167,0.0,2.0,100,0.00,,,0.00,0.000000,,2013-08-08 09:42:00,
2013-08-08 02:53:00,52.0,52.0,-100.00,SSE,167,0.0,2.0,100,0.00,,,0.00,0.000000,,2013-08-08 09:53:00,
2013-08-08 03:22:00,52.0,52.0,-100.00,NNW,341,0.0,2.0,100,0.00,,,0.00,0.000000,,2013-08-08 10:22:00,
2013-08-08 03:32:00,52.0,52.0,-100.00,NNW,341,0.0,2.0,100,0.00,,,0.00,0.000000,,2013-08-08 10:32:00,
2013-08-08 03:43:00,52.0,52.0,-100.00,NNW,341,0.0,2.0,100,0.00,,,0.00,0.000000,,2013-08-08 10:43:00,
2013-08-08 03:52:00,52.0,52.0,-100.00,NNW,341,0.0,2.0,100,0.00,,,0.00,0.000000,,2013-08-08 10:52:00,
2013-08-08 04:21:00,52.0,52.0,-100.00,North,1,0.0,2.0,100,0.00,,,0.00,0.000000,,2013-08-08 11:21:00,
2013-08-08 04:32:00,52.0,52.0,-100.00,North,1,0.0,2.0,100,0.00,,,0.00,0.000000,,2013-08-08 11:32:00,
2013-08-08 04:43:00,52.0,52.0,-100.00,North,1,0.0,2.0,100,0.00,,,0.00,0.000000,,2013-08-08 11:43:00,
2013-08-08 04:52:00,52.0,52.0,-100.00,North,1,0.0,2.0,100,0.00,,,0.00,0.000000,,2013-08-08 11:52:00,
2013-08-08 05:21:00,52.0,52.0,-100.00,North,3,0.0,1.0,100,0.00,,,0.00,0.000000,,2013-08-08 12:21:00,
2013-08-08 05:32:00,52.0,52.0,-100.00,North,3,0.0,1.0,100,0.00,,,0.00,0.000000,,2013-08-08 12:32:00,
2013-08-08 05:43:00,52.0,52.0,-100.00,North,3,0.0,1.0,100,0.00,,,0.00,0.000000,,2013-08-08 12:43:00,
2013-08-08 05:52:00,52.0,52.0,-100.00,North,3,0.0,1.0,100,0.00,,,0.00,0.000000,,2013-08-08 12:52:00,
2013-08-08 06:32:00,50.0,50.0,-100.00,NNW,347,0.0,2.0,100,0.00,,,0.00,0.000000,,2013-08-08 13:32:00,
2013-08-08 06:43:00,50.0,50.0,-100.00,NNW,347,0.0,2.0,100,0.00,,,0.00,0.000000,,2013-08-08 13:43:00,
2013-08-08 06:52:00,50.0,50.0,-100.00,NNW,347,0.0,2.0,100,0.00,,,0.00,0.000000,,2013-08-08 13:52:00,
2013-08-08 07:32:00,50.0,50.0,-100.00,South,181,0.0,1.0,100,0.00,,,0.00,0.000000,,2013-08-08 14:32:00,
2013-08-08 07:43:00,50.0,50.0,-100.00,South,181,0.0,1.0,100,0.00,,,0.00,0.000000,,2013-08-08 14:43:00,
2013-08-08 07:53:00,50.0,50.0,-100.00,South,181,0.0,1.0,100,0.00,,,0.00,0.000000,,2013-08-08 14:53:00,
2013-08-08 08:32:00,51.0,51.0,-100.00,SSW,203,0.0,1.0,100,0.00,,,0.00,18.000000,,2013-08-08 15:32:00,
2013-08-08 08:43:00,51.0,51.0,-100.00,SSW,203,0.0,1.0,100,0.00,,,0.00,18.000000,,2013-08-08 15:43:00,
2013-08-08 08:52:00,51.0,51.0,-100.00,SSW,203,0.0,1.0,100,0.00,,,0.00,18.000000,,2013-08-08 15:52:00,
2013-08-08 09:32:00,54.0,54.0,-100.00,NNW,337,0.0,2.0,100,0.00,,,0.00,78.000000,,2013-08-08 16:32:00,
2013-08-08 09:42:00,54.0,54.0,-100.00,NNW,337,0.0,2.0,100,0.00,,,0.00,78.000000,,2013-08-08 16:42:00,
2013-08-08 09:52:00,54.0,54.0,-100.00,NNW,337,0.0,2.0,100,0.00,,,0.00,78.000000,,2013-08-08 16:52:00,
2013-08-08 10:32:00,58.0,57.0,-100.00,WNW,297,0.0,1.0,98,0.00,,,0.00,157.000000,,2013-08-08 17:32:00,
2013-08-08 10:43:00,58.0,57.0,-100.00,WNW,297,0.0,1.0,98,0.00,,,0.00,157.000000,,2013-08-08 17:43:00,
2013-08-08 10:52:00,58.0,57.0,-100.00,WNW,297,0.0,1.0,98,0.00,,,0.00,157.000000,,2013-08-08 17:52:00,
2013-08-08 11:21:00,65.0,59.0,-100.00,NNW,335,0.0,2.0,82,0.00,,,0.00,246.000000,,2013-08-08 18:21:00,
2013-08-08 11:32:00,65.0,59.0,-100.00,NNW,335,0.0,2.0,82,0.00,,,0.00,246.000000,,2013-08-08 18:32:00,
2013-08-08 11:43:00,65.0,59.0,-100.00,NNW,335,0.0,2.0,82,0.00,,,0.00,246.000000,,2013-08-08 18:43:00,
2013-08-08 11:52:00,65.0,59.0,-100.00,NNW,335,0.0,2.0,82,0.00,,,0.00,246.000000,,2013-08-08 18:52:00,
2013-08-08 12:22:00,71.0,57.0,-100.00,North,359,0.0,2.0,62,0.00,,,0.00,636.000000,,2013-08-08 19:22:00,
2013-08-08 12:32:00,71.0,57.0,-100.00,North,359,0.0,2.0,62,0.00,,,0.00,636.000000,,2013-08-08 19:32:00,
2013-08-08 12:43:00,71.0,57.0,-100.00,North,359,0.0,2.0,62,0.00,,,0.00,636.000000,,2013-08-08 19:43:00,
2013-08-08 12:53:00,71.0,57.0,-100.00,North,359,0.0,2.0,62,0.00,,,0.00,636.000000,,2013-08-08 19:53:00,
2013-08-08 13:22:00,75.0,59.0,-100.00,NE,45,0.0,4.0,57,0.00,,,0.00,791.000000,,2013-08-08 20:22:00,
2013-08-08 13:32:00,75.0,59.0,-100.00,NE,45,0.0,4.0,57,0.00,,,0.00,791.000000,,2013-08-08 20:32:00,
2013-08-08 13:42:00,75.0,59.0,-100.00,NE,45,0.0,4.0,57,0.00,,,0.00,791.000000,,2013-08-08 20:42:00,
2013-08-08 13:52:00,75.0,59.0,-100.00,NE,45,0.0,4.0,57,0.00,,,0.00,791.000000,,2013-08-08 20:52:00,
2013-08-08 14:22:00,76.0,61.0,-100.00,NNW,344,0.0,3.0,60,0.00,,,0.00,622.000000,,2013-08-08 21:22:00,
2013-08-08 14:33:00,76.0,61.0,-100.00,NNW,344,0.0,3.0,60,0.00,,,0.00,622.000000,,2013-08-08 21:33:00,
2013-08-08 14:42:00,76.0,61.0,-100.00,NNW,344,0.0,3.0,60,0.00,,,0.00,622.000000,,2013-08-08 21:42:00,
2013-08-08 14:52:00,76.0,61.0,-100.00,NNW,344,0.0,3.0,60,0.00,,,0.00,622.000000,,2013-08-08 21:52:00,
2013-08-08 15:22:00,81.0,64.0,-100.00,NNW,339,0.0,3.0,56,0.00,,,0.00,581.000000,,2013-08-08 22:22:00,
2013-08-08 15:33:00,81.0,64.0,-100.00,NNW,339,0.0,3.0,56,0.00,,,0.00,581.000000,,2013-08-08 22:33:00,
2013-08-08 15:53:00,81.0,64.0,-100.00,NNW,339,0.0,3.0,56,0.00,,,0.00,581.000000,,2013-08-08 22:53:00,
2013-08-08 16:44:00,78.0,64.0,-100.00,North,349,0.0,0.0,62,0.00,,,0.00,707.000000,,2013-08-08 23:44:00,
2013-08-08 16:53:00,78.0,64.0,-100.00,North,349,0.0,0.0,62,0.00,,,0.00,707.000000,,2013-08-08 23:53:00,
2013-08-08 17:45:00,77.0,63.0,-100.00,WNW,296,0.0,0.0,62,0.00,,,0.00,584.000000,,2013-08-09 00:45:00,
2013-08-08 17:53:00,77.0,63.0,-100.00,WNW,296,0.0,0.0,62,0.00,,,0.00,584.000000,,2013-08-09 00:53:00,
2013-08-08 18:23:00,72.0,63.0,-100.00,WSW,247,0.0,2.0,74,0.00,,,0.00,411.000000,,2013-08-09 01:23:00,
2013-08-08 18:33:00,72.0,63.0,-100.00,WSW,247,0.0,2.0,74,0.00,,,0.00,411.000000,,2013-08-09 01:33:00,
2013-08-08 18:45:00,72.0,63.0,-100.00,WSW,247,0.0,2.0,74,0.00,,,0.00,411.000000,,2013-08-09 01:45:00,
2013-08-08 18:54:00,72.0,63.0,-100.00,WSW,247,0.0,2.0,74,0.00,,,0.00,411.000000,,2013-08-09 01:54:00,
2013-08-08 19:44:00,69.0,62.0,-100.00,SSW,198,1.0,3.0,79,0.00,,,0.00,181.000000,,2013-08-09 02:44:00,
2013-08-08 19:54:00,69.0,62.0,-100.00,SSW,198,1.0,3.0,79,0.00,,,0.00,181.000000,,2013-08-09 02:54:00,
2013-08-08 20:34:00,63.0,59.0,-100.00,SSW,192,2.0,4.0,87,0.00,,,0.00,150.000000,,2013-08-09 03:34:00,
2013-08-08 20:44:00,63.0,59.0,-100.00,SSW,192,2.0,4.0,87,0.00,,,0.00,150.000000,,2013-08-09 03:44:00,
2013-08-08 20:52:00,63.0,59.0,-100.00,SSW,192,2.0,4.0,87,0.00,,,0.00,150.000000,,2013-08-09 03:52:00,
2013-08-08 21:22:00,59.0,58.0,-100.00,South,176,2.0,4.0,97,0.00,,,0.00,61.000000,,2013-08-09 04:22:00,
2013-08-08 21:33:00,59.0,58.0,-100.00,South,176,2.0,4.0,97,0.00,,,0.00,61.000000,,2013-08-09 04:33:00,
2013-08-08 21:43:00,59.0,58.0,-100.00,South,176,2.0,4.0,97,0.00,,,0.00,61.000000,,2013-08-09 04:43:00,
2013-08-08 21:53:00,59.0,58.0,-100.00,South,176,2.0,4.0,97,0.00,,,0.00,61.000000,,2013-08-09 04:53:00,
2013-08-08 22:32:00,58.0,58.0,-100.00,South,177,2.0,4.0,100,0.00,,,0.00,4.000000,,2013-08-09 05:32:00,
2013-08-08 22:42:00,58.0,58.0,-100.00,South,177,2.0,4.0,100,0.00,,,0.00,4.000000,,2013-08-09 05:42:00,
2013-08-08 22:52:00,58.0,58.0,-100.00,South,177,2.0,4.0,100,0.00,,,0.00,4.000000,,2013-08-09 05:52:00,
2013-08-08 23:21:00,57.0,57.0,-100.00,South,189,1.0,4.0,100,0.00,,,0.00,0.000000,,2013-08-09 06:21:00,
2013-08-08 23:32:00,57.0,57.0,-100.00,South,189,1.0,4.0,100,0.00,,,0.00,0.000000,,2013-08-09 06:32:00,
2013-08-08 23:43:00,57.0,57.0,-100.00,South,189,1.0,4.0,100,0.00,,,0.00,0.000000,,2013-08-09 06:43:00,
2013-08-08 23:52:00,57.0,57.0,-100.00,South,189,1.0,4.0,100,0.00,,,0.00,0.000000,,2013-08-09 06:52:00,